Wind_Speed
25 25 22 20 19 19 20 19 17 14 14 16 15 14 14 15 15 16 16 15 14 13 14 14 14 13 12 11 10 10 10 11 13 13 14 13 13 14 14 14 13 12 11 10
26 23 20 22 22 22 21 19 17 15 15 15 14 15 16 17 16 17 16 15 14 14 13 13 13 12 11 9 9 10 10 11 13 13 13 13 14 15 14 14 13 13 13 11
25 22 24 25 24 23 22 20 17 15 15 16 16 17 18 18 19 18 16 15 14 13 14 12 12 11 10 10 9 9 10 11 13 13 14 14 15 14 14 13 14 13 13 13
26 26 27 26 25 24 21 20 19 18 18 18 19 19 20 20 20 19 17 15 13 14 14 12 10 8 9 10 10 10 9 11 12 13 14 15 15 15 14 14 15 14 14 13
26 26 27 26 24 23 21 21 21 21 21 22 21 21 21 21 21 20 18 16 15 14 14 12 11 11 10 11 10 10 10 11 12 13 14 15 15 16 16 15 15 15 14 14
26 27 28 25 25 24 22 23 24 24 24 24 22 22 21 21 20 19 17 16 15 15 13 12 11 12 10 10 10 11 11 12 12 13 14 15 15 15 16 16 16 16 15 15
27 28 27 27 26 25 25 26 26 26 26 24 22 23 21 19 19 20 18 15 14 14 14 12 11 11 9 9 10 10 11 12 13 13 14 14 14 15 15 16 17 17 16 16
27 27 27 28 27 26 25 26 26 26 25 24 23 24 20 19 18 19 17 15 14 13 12 11 10 9 9 10 10 10 10 12 13 13 13 14 14 14 16 17 18 17 17 17
25 25 25 26 25 25 26 26 25 25 25 24 24 22 20 19 18 18 17 15 13 13 12 10 9 9 9 9 9 10 11 12 13 13 13 14 14 15 16 18 19 19 18 18
24 25 26 25 25 26 25 24 25 25 25 25 23 20 17 17 17 16 15 14 13 12 11 10 8 9 10 10 11 12 12 12 13 13 13 14 14 15 16 18 18 18 18 19
24 25 26 27 27 27 26 26 26 25 25 24 22 19 16 15 13 13 13 13 13 12 11 10 8 8 9 11 12 12 13 13 14 14 14 15 15 16 17 18 19 19 19 19
25 26 27 27 25 24 24 25 26 26 25 24 23 20 18 16 13 12 13 13 12 12 11 10 8 7 8 10 11 12 13 13 14 15 14 15 15 16 17 18 19 20 20 20
28 28 28 28 27 26 25 24 24 24 25 25 25 22 20 18 15 14 13 12 11 10 10 9 8 7 8 9 11 12 13 13 14 14 14 14 15 16 17 19 19 20 20 20
30 30 29 28 26 26 26 24 23 24 26 26 25 23 21 20 19 17 15 12 11 11 10 9 8 7 8 9 11 12 13 13 13 14 14 14 15 16 17 19 19 20 21 21
30 32 30 28 27 26 25 26 24 25 26 26 24 24 22 21 19 18 16 14 12 12 11 10 8 8 7 8 10 12 12 13 13 14 14 14 14 15 17 19 20 20 20 21
32 32 31 29 28 28 27 27 27 27 26 26 24 23 21 21 20 18 17 15 14 13 12 11 10 9 8 9 9 11 12 13 15 15 15 15 15 15 16 18 18 19 20 21
35 35 33 32 31 29 29 28 28 27 26 26 25 23 21 21 20 18 16 15 13 12 12 11 10 10 10 11 11 11 12 13 14 15 15 15 15 15 16 17 18 18 20 21
35 35 34 32 32 33 30 29 28 26 25 26 25 25 23 22 20 19 17 16 15 13 12 13 12 12 12 12 12 13 13 13 14 14 14 15 16 16 17 17 17 18 19 20
36 35 34 35 34 33 31 30 29 27 26 26 25 24 23 21 21 19 17 17 17 16 15 14 13 14 14 14 13 14 14 14 15 15 15 16 17 17 18 18 19 19 20 21
36 36 35 35 35 33 30 29 28 28 26 24 24 24 23 21 20 18 17 17 17 15 15 15 15 15 15 15 15 15 16 15 16 16 16 17 17 18 19 20 20 20 21 22
37 37 36 34 34 32 31 29 28 27 24 24 24 23 21 20 19 18 18 18 17 17 16 15 16 17 16 17 17 16 17 17 17 18 18 17 18 19 20 20 21 21 22 22
38 37 35 34 34 33 30 29 28 26 24 23 22 21 21 20 20 19 19 19 18 18 18 17 17 17 17 17 18 18 18 18 18 18 18 18 18 19 20 20 20 21 21 22
36 36 35 33 33 31 30 28 26 25 23 22 23 23 22 20 19 19 19 19 19 19 18 18 17 17 18 18 19 20 20 20 19 19 19 19 20 19 20 20 21 22 21 22
32 33 33 32 31 30 29 27 26 24 23 23 22 22 22 20 19 19 20 19 19 19 18 18 18 17 17 18 19 20 20 20 20 19 19 20 20 20 21 21 22 23 24 24
28 27 28 28 29 29 29 27 26 25 24 23 22 21 21 20 20 20 20 19 18 19 19 19 18 18 18 18 19 19 20 20 20 20 20 20 20 21 21 21 22 23 23 23
28 27 26 26 26 26 26 24 23 23 22 23 23 20 19 19 19 18 18 18 19 18 18 17 17 18 18 19 19 20 20 20 20 20 20 21 21 21 21 22 22 23 23 24
Wind_Direction
237 236 236 235 232 227 227 226 224 221 226 232 236 238 249 262 267 269 272 278 284 286 288 289 295 295 282 271 265 257 248 241 233 228 222 217 216 217 219 218 219 218 216 217
234 233 228 226 223 223 224 223 221 219 225 232 237 242 247 255 263 271 277 279 281 284 284 286 288 285 276 266 262 256 246 236 228 224 219 215 214 216 217 217 217 217 215 216
231 226 224 223 221 222 223 224 223 222 228 238 243 245 249 252 262 271 275 274 272 277 289 290 282 271 263 262 261 254 247 233 225 224 220 217 215 214 216 216 215 216 215 213
223 220 221 222 221 221 222 222 223 224 229 238 246 247 249 254 258 266 270 270 268 275 290 283 276 270 262 259 255 250 243 229 222 218 217 218 215 215 214 214 213 214 215 212
222 220 221 222 221 221 218 219 224 227 230 237 242 247 250 253 257 261 267 270 272 274 281 276 268 268 264 258 253 246 241 228 222 218 217 219 217 216 216 216 213 213 214 211
217 218 218 217 217 217 214 219 224 228 233 237 239 246 251 256 255 257 263 267 267 269 271 265 267 265 260 254 251 245 237 227 221 219 218 221 219 219 219 218 216 214 214 211
217 217 215 212 213 213 215 220 225 228 234 239 240 246 252 258 256 257 262 264 265 267 265 261 264 264 258 252 244 236 228 223 219 216 218 222 221 220 217 216 214 215 213 210
218 216 214 214 214 214 217 222 227 232 236 239 241 247 252 253 255 255 254 257 266 266 257 258 262 267 262 247 238 228 220 216 214 216 218 221 219 218 214 213 212 213 213 212
218 215 214 217 217 217 218 222 228 235 237 240 242 247 251 250 253 250 250 259 264 264 260 255 256 257 250 236 227 221 217 215 215 217 219 219 219 217 217 215 213 213 214 213
218 214 211 213 214 216 219 223 227 232 235 239 242 241 246 248 251 249 251 258 260 266 266 258 248 242 237 230 225 224 221 218 217 220 218 215 215 216 213 209 209 208 210 212
216 214 209 211 213 214 217 222 227 232 236 239 243 241 247 250 256 253 253 250 253 264 272 271 256 236 235 231 228 224 223 223 221 220 217 214 213 212 208 208 208 209 211 213
213 213 210 211 214 216 221 227 230 233 236 241 245 244 250 256 259 263 263 255 254 261 269 274 270 244 229 228 224 223 223 224 220 219 217 213 214 213 211 211 211 212 213 213
211 213 211 211 213 215 219 224 229 234 238 242 246 249 253 254 262 268 271 265 261 266 266 271 271 246 234 229 224 226 228 226 221 221 218 215 214 212 212 212 212 214 214 214
214 215 215 214 215 217 220 223 227 232 235 239 244 247 250 253 260 267 268 270 271 270 268 271 264 248 239 227 221 224 223 222 222 219 214 214 216 215 214 215 216 215 214 215
214 217 217 217 218 217 221 224 228 233 235 239 243 246 247 251 258 263 264 268 267 265 263 264 261 249 240 224 219 219 219 219 219 216 212 214 215 215 216 217 217 217 218 216
212 217 219 218 218 220 222 226 230 235 235 238 242 243 245 248 252 256 256 260 263 263 260 257 257 249 239 232 228 224 223 224 222 219 219 217 215 216 214 216 216 215 218 217
214 216 221 222 222 224 224 226 230 234 237 238 240 240 242 244 247 252 257 260 261 264 261 256 249 242 240 239 238 236 234 231 225 222 221 218 218 218 216 216 217 218 219 221
214 217 221 223 222 226 224 226 228 232 236 238 240 239 243 248 247 252 256 260 261 260 255 246 240 240 240 241 240 239 236 233 229 226 225 223 223 221 219 220 222 224 224 224
214 216 220 222 223 225 226 226 228 232 235 237 240 240 242 247 251 253 254 254 255 252 250 246 243 241 239 238 238 237 235 233 229 230 230 226 225 225 225 225 227 229 229 227
217 217 220 220 222 226 226 228 230 233 235 233 236 240 243 246 252 256 254 252 254 251 253 251 245 246 242 237 236 235 233 232 231 233 234 229 228 228 229 230 232 234 234 233
214 217 220 221 224 228 228 230 231 232 232 233 233 238 243 245 251 254 254 253 253 256 252 248 243 242 241 238 236 236 234 233 233 234 234 232 232 232 233 234 235 236 237 237
217 217 218 221 225 227 229 231 231 233 233 233 234 239 241 245 248 251 252 251 252 253 253 251 244 240 239 239 237 235 235 237 237 239 238 235 236 236 237 239 239 239 240 240
216 218 218 221 224 226 227 229 230 231 236 237 242 244 245 247 248 249 251 252 250 252 253 252 248 245 241 241 239 235 235 237 239 242 240 238 240 240 240 243 244 243 245 245
215 215 217 220 221 223 226 226 230 233 236 237 242 245 245 247 247 249 253 253 250 249 248 248 248 245 243 242 239 237 234 234 236 240 241 240 242 242 242 243 245 246 246 247
209 209 212 219 222 225 226 227 229 233 240 240 244 247 244 244 246 247 248 248 248 246 246 246 246 243 243 243 242 239 239 238 238 240 241 242 244 244 244 245 247 248 248 250
212 216 217 220 223 224 223 223 229 235 238 238 241 243 244 246 246 248 249 248 248 249 247 247 245 242 243 243 240 239 240 242 243 245 248 249 248 247 246 247 247 250 254 255
Height
5827 5831 5834 5838 5840 5842 5843 5844 5846 5849 5850 5850 5851 5852 5854 5853 5854 5854 5855 5855 5854 5854 5854 5853 5853 5852 5851 5851 5853 5853 5854 5855 5857 5859 5860 5863 5866 5868 5869 5871 5873 5875 5877 5878
5822 5826 5830 5831 5833 5836 5838 5840 5843 5845 5846 5846 5847 5849 5850 5849 5850 5851 5851 5851 5851 5851 5850 5849 5849 5849 5849 5849 5849 5850 5851 5852 5854 5856 5857 5860 5863 5865 5866 5868 5871 5873 5875 5877
5817 5822 5823 5825 5828 5831 5833 5836 5839 5841 5841 5842 5844 5845 5846 5846 5846 5847 5847 5848 5848 5848 5847 5845 5845 5845 5846 5846 5847 5847 5848 5849 5851 5853 5855 5858 5860 5862 5864 5866 5868 5870 5872 5874
5810 5814 5816 5819 5823 5826 5829 5833 5835 5836 5837 5839 5840 5841 5842 5843 5843 5843 5843 5843 5843 5844 5843 5843 5842 5842 5843 5843 5843 5844 5845 5846 5848 5849 5852 5854 5857 5859 5861 5863 5865 5867 5870 5872
5805 5808 5810 5814 5819 5822 5826 5829 5830 5832 5833 5835 5836 5837 5839 5839 5839 5840 5841 5840 5840 5840 5840 5840 5839 5839 5839 5840 5840 5841 5842 5843 5845 5847 5849 5851 5854 5856 5858 5860 5862 5865 5867 5869
5799 5802 5805 5810 5814 5817 5820 5823 5825 5827 5828 5830 5832 5832 5834 5835 5836 5836 5837 5836 5836 5836 5837 5836 5835 5834 5835 5836 5837 5838 5839 5840 5842 5844 5846 5848 5850 5852 5854 5857 5859 5862 5864 5866
5792 5796 5800 5804 5807 5811 5814 5818 5820 5821 5823 5826 5828 5828 5830 5831 5832 5832 5833 5832 5832 5832 5833 5833 5832 5831 5831 5831 5833 5834 5835 5837 5839 5841 5843 5845 5846 5848 5851 5853 5856 5859 5861 5864
5786 5791 5795 5798 5802 5806 5809 5813 5816 5818 5820 5822 5823 5823 5826 5827 5827 5827 5827 5828 5828 5828 5829 5829 5828 5828 5827 5829 5830 5831 5832 5834 5836 5838 5840 5841 5843 5845 5847 5850 5853 5855 5858 5861
5781 5787 5791 5794 5798 5801 5804 5807 5811 5814 5815 5817 5818 5819 5821 5821 5822 5822 5823 5824 5824 5824 5825 5824 5824 5825 5825 5825 5826 5828 5829 5831 5833 5834 5836 5838 5839 5841 5843 5846 5849 5852 5855 5857
5776 5781 5786 5789 5793 5796 5800 5803 5806 5808 5809 5811 5813 5815 5817 5817 5817 5819 5820 5820 5820 5820 5821 5820 5820 5821 5822 5822 5824 5825 5827 5828 5830 5831 5833 5834 5836 5838 5840 5843 5846 5849 5852 5854
5771 5776 5780 5783 5786 5790 5795 5798 5800 5803 5805 5807 5809 5813 5813 5814 5814 5815 5816 5816 5817 5817 5818 5817 5816 5817 5817 5818 5820 5822 5824 5825 5827 5829 5830 5831 5833 5835 5838 5840 5843 5846 5849 5851
5765 5770 5774 5778 5783 5786 5790 5793 5796 5798 5801 5803 5804 5810 5809 5810 5811 5811 5812 5812 5813 5814 5814 5814 5813 5814 5815 5816 5817 5819 5821 5822 5824 5826 5827 5829 5831 5832 5835 5838 5840 5843 5846 5848
5760 5764 5769 5773 5779 5781 5784 5787 5791 5794 5796 5798 5800 5805 5805 5806 5807 5808 5809 5809 5809 5810 5810 5811 5811 5811 5813 5814 5815 5817 5819 5820 5821 5823 5824 5826 5828 5830 5832 5835 5837 5840 5842 5845
5755 5759 5764 5768 5772 5776 5779 5782 5785 5788 5790 5792 5795 5798 5800 5801 5803 5804 5805 5806 5806 5807 5808 5808 5809 5810 5811 5811 5813 5815 5816 5817 5819 5821 5822 5824 5826 5827 5829 5832 5834 5836 5839 5841
5749 5754 5758 5763 5767 5771 5774 5777 5780 5782 5785 5788 5791 5793 5795 5797 5799 5800 5801 5802 5803 5804 5805 5806 5807 5807 5808 5809 5810 5812 5813 5815 5816 5818 5820 5821 5823 5825 5826 5829 5831 5833 5835 5838
5743 5748 5753 5758 5762 5765 5769 5772 5775 5777 5780 5782 5785 5788 5791 5793 5794 5796 5797 5799 5800 5800 5801 5802 5804 5805 5806 5807 5808 5810 5811 5812 5814 5816 5817 5818 5820 5822 5824 5826 5828 5830 5832 5834
5738 5743 5748 5752 5757 5760 5764 5767 5769 5772 5775 5778 5780 5784 5786 5788 5790 5791 5793 5794 5795 5797 5798 5799 5801 5802 5803 5805 5806 5807 5808 5809 5811 5812 5814 5815 5817 5819 5821 5823 5825 5827 5829 5831
5732 5737 5742 5746 5752 5755 5760 5762 5764 5767 5770 5772 5775 5778 5780 5784 5786 5787 5788 5790 5791 5793 5795 5795 5797 5798 5800 5801 5803 5804 5805 5806 5808 5809 5811 5813 5814 5816 5818 5820 5822 5824 5825 5827
5726 5732 5736 5741 5744 5748 5753 5756 5759 5762 5765 5767 5770 5773 5776 5778 5781 5782 5783 5785 5787 5789 5790 5792 5793 5794 5795 5797 5799 5801 5802 5803 5805 5806 5808 5809 5811 5813 5815 5816 5818 5820 5821 5823
5720 5725 5730 5734 5739 5742 5748 5751 5753 5758 5760 5762 5765 5768 5771 5773 5775 5777 5778 5780 5781 5783 5786 5787 5788 5790 5791 5792 5794 5796 5798 5799 5801 5802 5804 5805 5807 5809 5810 5812 5814 5815 5816 5818
5714 5719 5723 5728 5733 5737 5742 5746 5749 5753 5756 5759 5761 5763 5766 5768 5771 5772 5773 5775 5777 5779 5781 5782 5783 5785 5786 5788 5789 5791 5792 5795 5796 5797 5799 5801 5803 5804 5805 5807 5808 5810 5811 5812
5708 5713 5718 5723 5728 5734 5737 5741 5745 5748 5750 5753 5756 5758 5760 5763 5765 5766 5768 5770 5772 5774 5775 5777 5778 5779 5781 5783 5784 5786 5788 5790 5791 5793 5795 5796 5798 5799 5800 5802 5803 5804 5806 5807
5702 5708 5713 5718 5724 5728 5732 5736 5739 5741 5745 5748 5751 5753 5755 5757 5759 5761 5763 5765 5767 5768 5770 5771 5772 5773 5775 5777 5779 5780 5783 5785 5787 5788 5790 5791 5793 5794 5795 5797 5797 5799 5800 5801
5697 5702 5708 5713 5718 5723 5727 5731 5734 5737 5740 5742 5745 5748 5750 5752 5754 5756 5758 5760 5762 5763 5764 5765 5767 5768 5770 5772 5773 5775 5776 5779 5781 5783 5784 5785 5787 5788 5790 5791 5792 5793 5794 5795
5693 5698 5703 5707 5713 5717 5721 5725 5729 5732 5735 5738 5740 5742 5744 5747 5749 5751 5753 5754 5755 5757 5759 5760 5762 5764 5765 5766 5767 5768 5770 5772 5775 5777 5779 5780 5781 5782 5784 5785 5786 5787 5788 5789
5689 5694 5699 5703 5708 5713 5717 5721 5724 5727 5729 5732 5735 5737 5739 5742 5744 5745 5747 5748 5750 5751 5753 5755 5756 5758 5759 5760 5762 5764 5766 5768 5770 5772 5773 5774 5776 5777 5778 5779 5780 5781 5782 5783